Track COSMOS 1996 now! 10-day predictions COSMOS 1996 is classified as:
1 19787U 89009C 21111.15895251 .00000027 00000-0 90607-4 0 9995 2 19787 82.6090 123.3314 0006831 14.6312 54.7710 12.62863468483938